Location: Drocourt
(49.0571°N, 1.7669°E)
Time: 10:35:20
(UTC+00:00)

Transit 4A - Pass Details

Date: 17 April 2024
Orbit: 871 x 971 km, 66.8° (Epoch: 24 May)

Event Time Altitude Azimuth Distance (km) Brightness Sun altitude
Rises 20:03:24 0° 324° (NW) 3,477 12.3 -11.9°
Reaches altitude 10° 20:06:15 10° 336° (NNW) 2,531 11.1 -12.3°
Maximum altitude 20:11:17 29° 36° (NE) 1,554 9.1 -13.0°
Enters shadow 20:15:37 13° 91° (E) 2,319 9.5 -13.5°
Drops below altitude 10° 20:16:18 10° 95° (E) 2,530 - -13.6°
Sets 20:19:08 0° 107° (ESE) 3,475 - -14.0°
